| time (UTC) | temp C | wind direction | speed KPH | gust KPH | rain 1hr cm | rain 24hr cm | rain mn cm | humidity % | barometer mb |
| 20260503185026 | 17 | 105 | 0.0 | 8.0 | 0.00 | 0.00 | 0.00 | 39 | 1017.1 |
| 20260503184509 | 17 | 338 | 0.0 | 8.0 | 0.00 | 0.00 | 0.00 | 31 | 1017.3 |
| 20260503184056 | 16 | 325 | 0.0 | 4.8 | 0.00 | 0.00 | 0.00 | 31 | 1017.4 |
| 20260503183546 | 16 | 131 | 0.0 | 4.8 | 0.00 | 0.00 | 0.00 | 33 | 1017.4 |
| 20260503183040 | 16 | 204 | 1.6 | 4.8 | 0.00 | 0.00 | 0.00 | 32 | 1017.6 |
| 20260503182532 | 16 | 165 | 0.0 | 3.2 | 0.00 | 0.00 | 0.00 | 32 | 1017.5 |
| 20260503182014 | 16 | 63 | 0.0 | 3.2 | 0.00 | 0.00 | 0.00 | 30 | 1017.5 |
| 20260503181554 | 17 | 321 | 0.0 | 8.0 | 0.00 | 0.00 | 0.00 | 32 | 1017.6 |
| 20260503181047 | 17 | 43 | 3.2 | 8.0 | 0.00 | 0.00 | 0.00 | 29 | 1017.6 |
| 20260503180532 | 17 | 195 | 0.0 | 8.0 | 0.00 | 0.00 | 0.00 | 31 | 1017.7 |
| 20260503180116 | 18 | 315 | 0.0 | 11.3 | 0.00 | 0.00 | 0.00 | 30 | 1017.8 |
| 20260503175547 | 18 | 181 | 1.6 | 11.3 | 0.00 | 0.00 | 0.00 | 30 | 1017.7 |
| 20260503175033 | 17 | 82 | 3.2 | 9.7 | 0.00 | 0.00 | 0.00 | 29 | 1017.9 |
| 20260503174513 | 17 | 215 | 0.0 | 14.5 | 0.00 | 0.00 | 0.00 | 33 | 1018.0 |
| 20260503174010 | 17 | 309 | 0.0 | 14.5 | 0.00 | 0.00 | 0.00 | 30 | 1018.0 |
| 20260503173556 | 17 | 207 | 0.0 | 8.0 | 0.00 | 0.00 | 0.00 | 33 | 1018.1 |
| 20260503173048 | 17 | 108 | 1.6 | 8.0 | 0.00 | 0.00 | 0.00 | 32 | 1018.1 |
| 20260503172533 | 17 | 173 | 0.0 | 14.5 | 0.00 | 0.00 | 0.00 | 35 | 1018.3 |
| 20260503172014 | 17 | 115 | 0.0 | 8.0 | 0.00 | 0.00 | 0.00 | 30 | 1018.4 |
| 20260503171604 | 18 | 86 | 0.0 | 8.0 | 0.00 | 0.00 | 0.00 | 32 | 1018.5 |
| 20260503171052 | 17 | 145 | 0.0 | 8.0 | 0.00 | 0.00 | 0.00 | 32 | 1018.7 |
| 20260503170540 | 17 | 98 | 0.0 | 3.2 | 0.00 | 0.00 | 0.00 | 33 | 1018.8 |
| 20260503150506 | 15 | 314 | 0.0 | 4.8 | 0.00 | 0.00 | 0.00 | 41 | 1020.1 |
| 20260503150104 | 14 | 204 | 0.0 | 4.8 | 0.00 | 0.00 | 0.00 | 44 | 1020.0 |
| 20260503140127 | 12 | 126 | 0.0 | 4.8 | 0.00 | 0.00 | 0.00 | 48 | 1020.0 |
| 20260503131035 | 10 | 332 | 0.0 | 4.8 | 0.00 | 0.00 | 0.00 | 61 | 1020.1 |
| 20260503130530 | 10 | 119 | 0.0 | 4.8 | 0.00 | 0.00 | 0.00 | 62 | 1020.2 |
| 20260503130108 | 10 | 131 | 0.0 | 3.2 | 0.00 | 0.00 | 0.00 | 58 | 1020.2 |
| 20260503110521 | -1 | 204 | 0.0 | 0.0 | 0.00 | 0.00 | 0.00 | 84 | 1019.6 |
| 20260503110104 | -1 | 204 | 0.0 | 0.0 | 0.00 | 0.00 | 0.00 | 84 | 1019.6 |
| 20260503100139 | -1 | 204 | 0.0 | 0.0 | 0.00 | 0.00 | 0.00 | 84 | 1019.1 |
| 20260503081545 | -1 | 204 | 0.0 | 0.0 | 0.00 | 0.00 | 0.00 | 84 | 1019.0 |
| 20260503081032 | -1 | 204 | 0.0 | 0.0 | 0.00 | 0.00 | 0.00 | 84 | 1019.1 |
| 20260503080512 | -1 | 204 | 0.0 | 0.0 | 0.00 | 0.00 | 0.00 | 84 | 1019.1 |
| 20260503080104 | -1 | 204 | 0.0 | 0.0 | 0.00 | 0.00 | 0.00 | 84 | 1019.0 |
| 20260503072521 | -1 | 204 | 0.0 | 0.0 | 0.00 | 0.00 | 0.00 | 84 | 1018.9 |
| 20260503072004 | -1 | 204 | 0.0 | 0.0 | 0.00 | 0.00 | 0.00 | 84 | 1018.9 |
| 20260503071553 | -1 | 204 | 0.0 | 0.0 | 0.00 | 0.00 | 0.00 | 84 | 1018.9 |
| 20260503071040 | -1 | 204 | 0.0 | 0.0 | 0.00 | 0.00 | 0.00 | 84 | 1018.9 |
| 20260503070530 | -1 | 204 | 0.0 | 0.0 | 0.00 | 0.00 | 0.00 | 84 | 1018.9 |
| 20260503070116 | -1 | 204 | 0.0 | 0.0 | 0.00 | 0.00 | 0.00 | 84 | 1019.0 |
| 20260503055042 | 0 | 204 | 0.0 | 0.0 | 0.00 | 0.00 | 0.00 | 83 | 1019.3 |
| 20260503054535 | 0 | 204 | 0.0 | 0.0 | 0.00 | 0.00 | 0.00 | 83 | 1019.3 |
| 20260503054022 | 0 | 204 | 0.0 | 0.0 | 0.00 | 0.00 | 0.00 | 83 | 1019.4 |
| 20260503053503 | 0 | 204 | 0.0 | 0.0 | 0.00 | 0.00 | 0.00 | 83 | 1019.3 |
| 20260503053054 | 0 | 204 | 0.0 | 0.0 | 0.00 | 0.00 | 0.00 | 83 | 1019.3 |
| 20260503052541 | 0 | 204 | 0.0 | 0.0 | 0.00 | 0.00 | 0.00 | 83 | 1019.3 |
| 20260503052031 | 0 | 203 | 0.0 | 0.0 | 0.00 | 0.00 | 0.00 | 83 | 1019.3 |
| 20260503051515 | 0 | 204 | 0.0 | 0.0 | 0.00 | 0.00 | 0.00 | 83 | 1019.3 |
| 20260503051058 | 0 | 204 | 0.0 | 0.0 | 0.00 | 0.00 | 0.00 | 83 | 1019.3 |
| 20260503050543 | 0 | 204 | 0.0 | 0.0 | 0.00 | 0.00 | 0.00 | 83 | 1019.3 |
| 20260503050011 | 0 | 203 | 0.0 | 0.0 | 0.00 | 0.00 | 0.00 | 83 | 1019.3 |
| 20260503045501 | 0 | 204 | 0.0 | 0.0 | 0.00 | 0.00 | 0.00 | 83 | 1019.2 |
| 20260503045053 | 0 | 204 | 0.0 | 0.0 | 0.00 | 0.00 | 0.00 | 83 | 1019.3 |
| 20260503044547 | 0 | 204 | 0.0 | 0.0 | 0.00 | 0.00 | 0.00 | 83 | 1019.3 |
| 20260503044032 | 0 | 204 | 0.0 | 0.0 | 0.00 | 0.00 | 0.00 | 82 | 1019.3 |
| 20260503043520 | 0 | 204 | 0.0 | 0.0 | 0.00 | 0.00 | 0.00 | 82 | 1019.3 |
| 20260503043115 | 0 | 204 | 0.0 | 0.0 | 0.00 | 0.00 | 0.00 | 82 | 1019.3 |
| 20260503042549 | 0 | 204 | 0.0 | 0.0 | 0.00 | 0.00 | 0.00 | 82 | 1019.3 |
| 20260503042039 | 0 | 204 | 0.0 | 0.0 | 0.00 | 0.00 | 0.00 | 82 | 1019.3 |
| 20260503041532 | 0 | 204 | 0.0 | 0.0 | 0.00 | 0.00 | 0.00 | 82 | 1019.2 |
| 20260503041012 | 0 | 204 | 0.0 | 0.0 | 0.00 | 0.00 | 0.00 | 82 | 1019.2 |
| 20260503040603 | 0 | 204 | 0.0 | 0.0 | 0.00 | 0.00 | 0.00 | 82 | 1019.3 |
| 20260503040056 | 0 | 204 | 0.0 | 0.0 | 0.00 | 0.00 | 0.00 | 82 | 1019.3 |
| 20260503035520 | 0 | 204 | 0.0 | 0.0 | 0.00 | 0.00 | 0.00 | 81 | 1019.3 |
| 20260503035102 | 0 | 204 | 0.0 | 0.0 | 0.00 | 0.00 | 0.00 | 81 | 1019.3 |
| 20260503034600 | 0 | 204 | 0.0 | 0.0 | 0.00 | 0.00 | 0.00 | 81 | 1019.3 |
| 20260503034039 | 0 | 204 | 0.0 | 0.0 | 0.00 | 0.00 | 0.00 | 80 | 1019.3 |
| 20260503033525 | 0 | 204 | 0.0 | 0.0 | 0.00 | 0.00 | 0.00 | 80 | 1019.3 |
| 20260503033009 | 0 | 204 | 0.0 | 0.0 | 0.00 | 0.00 | 0.00 | 80 | 1019.3 |
| 20260503032552 | 1 | 204 | 0.0 | 0.0 | 0.00 | 0.00 | 0.00 | 80 | 1019.3 |
| 20260503032044 | 1 | 204 | 0.0 | 0.0 | 0.00 | 0.00 | 0.00 | 80 | 1019.4 |
| 20260503031526 | 1 | 204 | 0.0 | 0.0 | 0.00 | 0.00 | 0.00 | 80 | 1019.3 |
| 20260503031008 | 1 | 204 | 0.0 | 0.0 | 0.00 | 0.00 | 0.00 | 79 | 1019.4 |
| 20260503030558 | 1 | 204 | 0.0 | 0.0 | 0.00 | 0.00 | 0.00 | 80 | 1019.4 |
| 20260503030050 | 1 | 204 | 0.0 | 0.0 | 0.00 | 0.00 | 0.00 | 79 | 1019.3 |
| 20260503025521 | 1 | 205 | 0.0 | 0.0 | 0.00 | 0.00 | 0.00 | 78 | 1019.3 |
| 20260503025005 | 1 | 204 | 0.0 | 0.0 | 0.00 | 0.00 | 0.00 | 78 | 1019.3 |
| 20260503024558 | 1 | 205 | 0.0 | 0.0 | 0.00 | 0.00 | 0.00 | 78 | 1019.3 |
| 20260503024047 | 1 | 204 | 0.0 | 0.0 | 0.00 | 0.00 | 0.00 | 77 | 1019.4 |
| 20260503023534 | 1 | 204 | 0.0 | 0.0 | 0.00 | 0.00 | 0.00 | 77 | 1019.3 |
| 20260503023022 | 1 | 204 | 0.0 | 0.0 | 0.00 | 0.00 | 0.00 | 76 | 1019.4 |
| 20260503022504 | 1 | 204 | 0.0 | 0.0 | 0.00 | 0.00 | 0.00 | 75 | 1019.3 |
| 20260503022055 | 2 | 204 | 0.0 | 0.0 | 0.00 | 0.00 | 0.00 | 74 | 1019.2 |
| 20260503021536 | 2 | 204 | 0.0 | 0.0 | 0.00 | 0.00 | 0.00 | 74 | 1019.2 |
| 20260503021018 | 2 | 203 | 0.0 | 0.0 | 0.00 | 0.00 | 0.00 | 73 | 1019.1 |
| 20260503020508 | 2 | 204 | 0.0 | 0.0 | 0.00 | 0.00 | 0.00 | 72 | 1019.1 |
| 20260503020100 | 2 | 204 | 0.0 | 0.0 | 0.00 | 0.00 | 0.00 | 71 | 1019.1 |
| 20260503015535 | 2 | 205 | 0.0 | 0.0 | 0.00 | 0.00 | 0.00 | 70 | 1019.0 |
| 20260503015026 | 3 | 205 | 0.0 | 0.0 | 0.00 | 0.00 | 0.00 | 68 | 1019.0 |
| 20260503014506 | 3 | 205 | 0.0 | 0.0 | 0.00 | 0.00 | 0.00 | 68 | 1018.9 |
| 20260503014056 | 3 | 205 | 0.0 | 0.0 | 0.00 | 0.00 | 0.00 | 67 | 1018.9 |
| 20260503013546 | 3 | 205 | 0.0 | 0.0 | 0.00 | 0.00 | 0.00 | 66 | 1018.8 |
| 20260503013036 | 3 | 206 | 0.0 | 0.0 | 0.00 | 0.00 | 0.00 | 65 | 1018.8 |
| 20260503012527 | 4 | 205 | 0.0 | 0.0 | 0.00 | 0.00 | 0.00 | 65 | 1018.7 |
| 20260503012007 | 4 | 206 | 0.0 | 0.0 | 0.00 | 0.00 | 0.00 | 64 | 1018.6 |
| 20260503011554 | 5 | 206 | 0.0 | 0.0 | 0.00 | 0.00 | 0.00 | 64 | 1018.6 |
| 20260503011046 | 5 | 205 | 0.0 | 0.0 | 0.00 | 0.00 | 0.00 | 64 | 1018.6 |
| 20260503010536 | 5 | 205 | 0.0 | 0.0 | 0.00 | 0.00 | 0.00 | 63 | 1018.5 |
| 20260503010004 | 5 | 205 | 0.0 | 0.0 | 0.00 | 0.00 | 0.00 | 64 | 1018.4 |
| 20260503005554 | 6 | 206 | 0.0 | 0.0 | 0.00 | 0.00 | 0.00 | 63 | 1018.4 |
| 20260503005038 | 6 | 205 | 0.0 | 0.0 | 0.00 | 0.00 | 0.00 | 63 | 1018.4 |
| 20260503004533 | 6 | 205 | 0.0 | 0.0 | 0.00 | 0.00 | 0.00 | 60 | 1018.4 |
| 20260503004026 | 6 | 205 | 0.0 | 0.0 | 0.00 | 0.00 | 0.00 | 61 | 1018.3 |
| 20260503003514 | 6 | 206 | 0.0 | 3.2 | 0.00 | 0.00 | 0.00 | 62 | 1018.3 |
| 20260503003107 | 7 | 204 | 0.0 | 3.2 | 0.00 | 0.00 | 0.00 | 56 | 1018.2 |
| 20260503002548 | 7 | 335 | 0.0 | 1.6 | 0.00 | 0.00 | 0.00 | 58 | 1018.3 |
| 20260503002040 | 7 | 305 | 0.0 | 4.8 | 0.00 | 0.00 | 0.00 | 57 | 1018.1 |
| 20260503001546 | 7 | 321 | 0.0 | 4.8 | 0.00 | 0.00 | 0.00 | 56 | 1018.1 |
| 20260503001013 | 7 | 220 | 0.0 | 1.6 | 0.00 | 0.00 | 0.00 | 55 | 1018.0 |
| 20260503000600 | 8 | 320 | 0.0 | 3.2 | 0.00 | 0.00 | 0.00 | 51 | 1017.9 |
| 20260503000052 | 8 | 163 | 0.0 | 6.4 | 0.00 | 0.00 | 0.00 | 51 | 1017.9 |
| 20260502235520 | 8 | 323 | 0.0 | 6.4 | 0.00 | 0.00 | 0.00 | 49 | 1017.8 |
| 20260502235004 | 8 | 160 | 0.0 | 4.8 | 0.00 | 0.00 | 0.00 | 49 | 1017.8 |
| 20260502234552 | 8 | 114 | 0.0 | 1.6 | 0.00 | 0.00 | 0.00 | 48 | 1017.8 |
| 20260502234042 | 8 | 251 | 0.0 | 4.8 | 0.00 | 0.00 | 0.00 | 47 | 1017.7 |
| 20260502233528 | 9 | 295 | 0.0 | 4.8 | 0.00 | 0.00 | 0.00 | 47 | 1017.7 |
| 20260502233020 | 9 | 325 | 0.0 | 3.2 | 0.00 | 0.00 | 0.00 | 46 | 1017.6 |
| 20260502232627 | 9 | 197 | 0.0 | 3.2 | 0.00 | 0.00 | 0.00 | 45 | 1017.7 |
| 20260502232056 | 9 | 48 | 0.0 | 3.2 | 0.00 | 0.00 | 0.00 | 45 | 1017.6 |
| 20260502231550 | 9 | 152 | 0.0 | 3.2 | 0.00 | 0.00 | 0.00 | 45 | 1017.6 |
| 20260502231031 | 9 | 308 | 0.0 | 3.2 | 0.00 | 0.00 | 0.00 | 49 | 1017.7 |
| 20260502230519 | 9 | 240 | 0.0 | 4.8 | 0.00 | 0.00 | 0.00 | 50 | 1017.6 |
| 20260502230112 | 9 | 316 | 0.0 | 4.8 | 0.00 | 0.00 | 0.00 | 43 | 1017.6 |
| 20260502225550 | 10 | 208 | 0.0 | 1.6 | 0.00 | 0.00 | 0.00 | 46 | 1017.5 |
| 20260502225040 | 10 | 311 | 0.0 | 6.4 | 0.00 | 0.00 | 0.00 | 41 | 1017.5 |
| 20260502224526 | 10 | 311 | 0.0 | 6.4 | 0.00 | 0.00 | 0.00 | 39 | 1017.5 |
| 20260502224010 | 10 | 318 | 0.0 | 6.4 | 0.00 | 0.00 | 0.00 | 40 | 1017.5 |
| 20260502223556 | 10 | 145 | 0.0 | 4.8 | 0.00 | 0.00 | 0.00 | 42 | 1017.4 |
| 20260502223046 | 10 | 96 | 0.0 | 4.8 | 0.00 | 0.00 | 0.00 | 39 | 1017.4 |
| 20260502222534 | 11 | 235 | 0.0 | 1.6 | 0.00 | 0.00 | 0.00 | 42 | 1017.4 |
| 20260502222023 | 11 | 211 | 0.0 | 3.2 | 0.00 | 0.00 | 0.00 | 41 | 1017.4 |
| 20260502221506 | 11 | 314 | 0.0 | 4.8 | 0.00 | 0.00 | 0.00 | 39 | 1017.3 |
| 20260502221053 | 11 | 325 | 0.0 | 4.8 | 0.00 | 0.00 | 0.00 | 39 | 1017.3 |
| 20260502220542 | 11 | 165 | 0.0 | 1.6 | 0.00 | 0.00 | 0.00 | 38 | 1017.2 |
| 20260502220036 | 11 | 345 | 0.0 | 4.8 | 0.00 | 0.00 | 0.00 | 36 | 1017.3 |
| 20260502215603 | 11 | 5 | 0.0 | 4.8 | 0.00 | 0.00 | 0.00 | 35 | 1017.3 |
| 20260502215052 | 11 | 71 | 0.0 | 4.8 | 0.00 | 0.00 | 0.00 | 40 | 1017.2 |
| 20260502214548 | 11 | 304 | 0.0 | 6.4 | 0.00 | 0.00 | 0.00 | 36 | 1017.2 |
| 20260502214032 | 12 | 176 | 0.0 | 6.4 | 0.00 | 0.00 | 0.00 | 37 | 1017.1 |
| 20260502213516 | 12 | 339 | 1.6 | 8.0 | 0.00 | 0.00 | 0.00 | 35 | 1017.0 |
| 20260502213100 | 12 | 345 | 1.6 | 8.0 | 0.00 | 0.00 | 0.00 | 33 | 1017.0 |
| 20260502212546 | 12 | 212 | 0.0 | 6.4 | 0.00 | 0.00 | 0.00 | 36 | 1017.0 |
| 20260502212037 | 12 | 288 | 1.6 | 9.7 | 0.00 | 0.00 | 0.00 | 34 | 1017.0 |
| 20260502211526 | 12 | 271 | 0.0 | 9.7 | 0.00 | 0.00 | 0.00 | 33 | 1017.1 |
| 20260502211014 | 12 | 97 | 0.0 | 4.8 | 0.00 | 0.00 | 0.00 | 33 | 1017.0 |
| 20260502210550 | 12 | 319 | 1.6 | 4.8 | 0.00 | 0.00 | 0.00 | 34 | 1017.0 |
| 20260502210018 | 13 | 259 | 0.0 | 3.2 | 0.00 | 0.00 | 0.00 | 34 | 1017.0 |
| 20260502205605 | 12 | 132 | 0.0 | 1.6 | 0.00 | 0.00 | 0.00 | 34 | 1017.0 |
| 20260502205053 | 13 | 321 | 0.0 | 4.8 | 0.00 | 0.00 | 0.00 | 34 | 1017.0 |
| 20260502204545 | 13 | 319 | 0.0 | 8.0 | 0.00 | 0.00 | 0.00 | 33 | 1017.0 |
| 20260502204026 | 12 | 314 | 0.0 | 8.0 | 0.00 | 0.00 | 0.00 | 34 | 1017.0 |
| 20260502203507 | 12 | 332 | 1.6 | 6.4 | 0.00 | 0.00 | 0.00 | 37 | 1017.1 |
| 20260502203057 | 12 | 310 | 0.0 | 6.4 | 0.00 | 0.00 | 0.00 | 36 | 1017.1 |
| 20260502202546 | 12 | 155 | 0.0 | 4.8 | 0.00 | 0.00 | 0.00 | 36 | 1017.1 |
| 20260502202035 | 12 | 191 | 0.0 | 4.8 | 0.00 | 0.00 | 0.00 | 35 | 1017.1 |
| 20260502201525 | 13 | 15 | 0.0 | 6.4 | 0.00 | 0.00 | 0.00 | 31 | 1017.2 |
| 20260502201002 | 13 | 125 | 0.0 | 6.4 | 0.00 | 0.00 | 0.00 | 32 | 1017.3 |
| 20260502200554 | 13 | 207 | 0.0 | 6.4 | 0.00 | 0.00 | 0.00 | 33 | 1017.2 |
| 20260502200045 | 13 | 319 | 0.0 | 4.8 | 0.00 | 0.00 | 0.00 | 32 | 1017.3 |
| 20260502195510 | 13 | 212 | 0.0 | 8.0 | 0.00 | 0.00 | 0.00 | 33 | 1017.3 |
| 20260502195058 | 13 | 84 | 0.0 | 8.0 | 0.00 | 0.00 | 0.00 | 34 | 1017.3 |
| 20260502194546 | 13 | 341 | 0.0 | 4.8 | 0.00 | 0.00 | 0.00 | 34 | 1017.4 |
| 20260502194035 | 13 | 304 | 1.6 | 6.4 | 0.00 | 0.00 | 0.00 | 33 | 1017.4 |
| 20260502193517 | 13 | 283 | 0.0 | 6.4 | 0.00 | 0.00 | 0.00 | 36 | 1017.4 |
| 20260502193007 | 13 | 316 | 0.0 | 6.4 | 0.00 | 0.00 | 0.00 | 33 | 1017.4 |
| 20260502192559 | 13 | 216 | 0.0 | 8.0 | 0.00 | 0.00 | 0.00 | 34 | 1017.4 |
| 20260502192046 | 13 | 333 | 0.0 | 8.0 | 0.00 | 0.00 | 0.00 | 31 | 1017.5 |
| 20260502191535 | 14 | 226 | 0.0 | 6.4 | 0.00 | 0.00 | 0.00 | 35 | 1017.4 |
| 20260502191018 | 13 | 323 | 0.0 | 9.7 | 0.00 | 0.00 | 0.00 | 34 | 1017.4 |
| 20260502190513 | 13 | 323 | 0.0 | 9.7 | 0.00 | 0.00 | 0.00 | 34 | 1017.5 |
| 20260502185541 | 14 | 68 | 3.2 | 6.4 | 0.00 | 0.00 | 0.00 | 33 | 1017.6 |